Regional Weather Roundup
Issued by NWS

Home | Current Version | Previous Version | Graphics & Text | Print | Product List | Glossary On
Versions: 1 2 3 4 5 6 7 8 9 10 11 12 13 14 15 16 17 18 19 20 21 22 23 24 25 26 27 28 29 30 31 32 33 34 35 36 37 38 39 40 41 42 43 44 45 46 47 48 49 50
820
ASUS43 KBIS 220401
RWRND

NORTH DAKOTA REGIONAL WEATHER ROUNDUP
NATIONAL WEATHER SERVICE BISMARCK ND
1100 PM CDT THU MAY 21 2015

NOTE: "FAIR" INDICATES FEW OR NO CLOUDS BELOW 12,000 FEET WITH NO
SIGNIFICANT WEATHER AND/OR OBSTRUCTIONS TO VISIBILITY.


NDZ001>003-009>011-017-220500-
NORTHWEST NORTH DAKOTA

CITY           SKY/WX    TMP DP  RH WIND       PRES   REMARKS
WILLISTON      CLEAR     59  34  39 SE5       30.10R
MINOT          FAIR      56  39  53 SE5       30.12R
MINOT AFB      CLEAR     54  37  52 S2        30.11R
$$

NDZ018>021-031>035-040>046-220500-
SOUTHWEST NORTH DAKOTA

CITY           SKY/WX    TMP DP  RH WIND       PRES   REMARKS
BISMARCK       CLOUDY    58  44  60 NE8       30.13R
DICKINSON      CLEAR     51  34  52 S6        30.12R
GARRISON         N/A     57  38  48 E3        30.12R
HETTINGER ARPT CLEAR     52  34  50 SE5       30.15R
$$

NDZ004>008-012>016-024-026-027-054-220500-
NORTHEAST NORTH DAKOTA

CITY           SKY/WX    TMP DP  RH WIND       PRES   REMARKS
GRAND FORKS    CLEAR     45  40  82 CALM      30.12R
GRND FRKS AFB  CLEAR     47  41  80 W3        30.13R
DEVILS LAKE    CLEAR     52  37  58 CALM      30.13R
$$

NDZ022-023-025-028>030-036>039-047>053-220500-
SOUTHEAST NORTH DAKOTA

CITY           SKY/WX    TMP DP  RH WIND       PRES   REMARKS
FARGO          CLEAR     55  42  61 N5        30.12R
JAMESTOWN      CLEAR     54  45  71 E5        30.13R
$$




USA.gov is the U.S. government's official web portal to all federal, state and local government web resources and services.